Simultaneous Nadir Overpasses (SNOs) Predictions

Prediction of SNOs between LANDSAT-8 and METOP-B Satellite Orbit:

Table of predicted SNOs for the next 14.0 days since TLE Epoch: 3/20/2021
Index Date (LANDSAT-8) Time (LANDSAT-8) Lat,Lon (LANDSAT-8) SZA (LANDSAT-8 ) Date (METOP-B) Time (METOP-B) Lat,Lon (METOP-B) SZA (METOP-B ) Distance(km) Time Diff (sec)
1 03/22/2021 11:50:49 -81.11,-138.34 97.89 03/22/2021 11:50:02 -81.12,-138.29 97.90 1.03 47
2 03/22/2021 12:40:14 81.14, 29.75 82.16 03/22/2021 12:40:41 81.14, 29.64 82.16 1.89 27
3 03/25/2021 07:25:03 -81.13, -71.61 98.93 03/25/2021 07:24:22 -81.13, -71.52 98.94 1.56 41
4 03/25/2021 08:14:29 81.14, 96.09 81.07 03/25/2021 08:15:02 81.14, 96.05 81.08 0.80 33
5 03/28/2021 02:59:18 -81.13, -5.28 100.03 03/28/2021 02:58:43 -81.13, -5.14 100.02 2.58 35
6 03/28/2021 03:48:43 81.15, 162.75 80.02 03/28/2021 03:49:22 81.15, 162.81 80.05 1.13 39
7 03/30/2021 22:33:32 -81.12, 61.01 101.12 03/30/2021 22:33:04 -81.12, 60.86 101.14 2.56 28
8 03/30/2021 23:22:56 81.16,-130.63 78.98 03/30/2021 23:23:41 81.16,-130.43 79.02 3.30 45
9 04/02/2021 18:07:46 -81.13, 127.62 102.15 04/02/2021 18:07:24 -81.13, 127.59 102.16 0.56 22



Historial Predications of SNOs between LANDSAT-8 and METOP-B
